Regional Weather Roundup
Issued by NWS

Home | Current Version | Previous Version | Text Only | Print | Product List | Glossary Off
Versions: 1 2 3 4 5 6 7 8 9 10 11 12 13 14 15 16 17 18 19 20 21 22 23 24 25 26 27 28 29 30 31 32 33 34 35 36 37 38 39 40 41 42 43 44 45 46 47 48 49 50

310
ASUS43 KMPX 080110
RWRMN
WEATHER ROUNDUP FOR MINNESOTA
NATIONAL WEATHER SERVICE TWIN CITIES/CHANHASSEN MN
700 PM CST WED DEC 07 2016


NOTE: "FAIR" INDICATES FEW OR NO CLOUDS BELOW 12,000 FEET WITH NO
SIGNIFICANT WEATHER AND/OR OBSTRUCTIONS TO VISIBILITY. N/A MEANS
CURRENT SKY AND/OR WEATHER CONDITIONS ARE NOT AVAILABLE.

MNZ060>063-068>070-080200-
   Twin Cities Metro

CITY           SKY/WX    TMP DP  RH WIND       PRES   REMARKS
TWIN CITIES    FLURRIES  17   6  62 W18G24    30.11R WCI   1
ST PAUL        MOCLDY    17   8  67 W22G31    30.12S WCI   0
CRYSTAL        MOCLDY    16   5  62 W17G26    30.10R WCI   0
LAKEVILLE      CLOUDY    16  10  79 W20G31    30.12R WCI  -1
EDEN PRAIRIE   CLOUDY    17   6  62 W25G32    30.12R WCI  -1
SOUTH ST PAUL  FLURRIES  19  10  68 W18G25    30.11R WCI   3
LAKE ELMO      FAIR      18   9  68 W21G28    30.10R WCI   1
$$
MNZ001>005-007-008-013>017-022>024-027-028-080200-
   Northwest Minnesota

CITY           SKY/WX    TMP DP  RH WIND       PRES   REMARKS
BEMIDJI        LGT SNOW  19  16  90 W13G18    29.96R WCI   5
HALLOCK          N/A     21  19  93 N24G33    30.10R WCI   4
ROSEAU         CLOUDY    21  18  86 N16G24    30.02R WCI   7
WARROAD        CLOUDY    21  18  86 NW12G20   30.01R WCI   9
THIEF RVR FALL LGT SNOW  21  18  88 NW21      30.05R FOG     WCI   5
CROOKSTON      LGT SNOW  21  19  93 NW23      30.09R WCI   5
FOSSTON        LGT SNOW  18  16  93 W15       30.02R WCI   3
DETROIT LAKES  LGT SNOW  18  14  86 NW16G28   30.06R WCI   3
MOORHEAD       MIX PCPN  16  10  79 NW26      30.13R WCI  -3
PARK RAPIDS    FLURRIES  16   9  74 W15       29.99R WCI   1
$$
MNZ006-009>011-018-025>026-080200-
   North Central Minnesota

CITY           SKY/WX    TMP DP  RH WIND       PRES   REMARKS
BAUDETTE       LGT SNOW  24  18  77 N22G29    29.94R WCI   9
FLAG ISLAND    CLOUDY    23  19  86 N22G30    29.98R WCI   8
INTL FALLS     LGT SNOW  23  20  88 NW12      29.88R VSB 1   WCI  12
WASKISH        LGT SNOW  25  21  86 NW10G20   29.94R WCI  15
BIG FORK       LGT SNOW  21  18  86 SW6       29.88R WCI  14
LONGVILLE      FLURRIES  18  12  79 W10G16    29.95R WCI   6
GRAND RAPIDS   FLURRIES  18  14  84 W17       29.92R WCI   3
CRANE LAKE     LGT SNOW  21  19  93 N7        29.86R WCI  13
ORR            LGT SNOW  21  18  86 NW8       29.82R WCI  12
COOK           LGT SNOW  19  18  93 W7        29.85R WCI  10
$$
MNZ012-019>021-037-080200-
   Northeast Minnesota

CITY           SKY/WX    TMP DP  RH WIND       PRES   REMARKS
DULUTH         LGT SNOW  16  12  84 W17       29.87R FOG     WCI   0
ELY            FLURRIES  19  16  86 W10       29.79R WCI   8
HIBBING        LGT SNOW  17  14  88 W8        29.87R FOG     WCI   7
EVELETH        LGT SNOW  19  15  86 W9        29.86R WCI   7
DULUTH HARBOR  FLURRIES  21  16  79 SW21      29.93S WCI   6
TWO HARBORS    FLURRIES  21  14  73 W12G20    29.84S WCI   9
SILVER BAY     CLOUDY    19  16  86 W7        29.81S WCI  10
GRAND MARAIS     N/A     28  24  85 W15G24    29.78R WCI  16
G MARAIS ARPRT LGT SNOW  19  16  86 W7        29.70R WCI  10
$$
MNZ029>031-032-039>041-046>048-054>057-064-080200-
   West Central Minnesota

CITY           SKY/WX    TMP DP  RH WIND       PRES   REMARKS
FERGUS FALLS   LGT SNOW  10   9  92 NW24      30.18S WCI -10
WHEATON        LGT SNOW  14  10  85 W21G29    30.21S WCI  -4
MORRIS         LGT SNOW  12   9  85 W24       30.17R VSB 1   WCI  -8
ALEXANDRIA     LGT SNOW  12   8  84 W23G30    30.10R FOG     WCI  -7
ELBOW LAKE     LGT SNOW  11   9  91 NW22      30.15R VSB 1   WCI  -9
WADENA         LGT SNOW  12   9  85 W17       30.04R WCI  -5
GLENWOOD       LGT SNOW  12   9  85 W21       30.11S WCI  -6
APPLETON       LGT SNOW  14   9  79 NW21G29   30.21R WCI  -4
BENSON         LGT SNOW  12   7  79 NW23G30   30.18R WCI  -7
ORTONVILLE     LGT SNOW  12   7  79 W22G33    30.21R WCI  -7
MADISON        PTCLDY    14   7  73 W22G33    30.24R WCI  -4
WILLMAR        CLOUDY    14   9  79 W23G31    30.17S WCI  -5
$$
MNZ033>034-036-042>043-049>051-058-059-080200-
   Central Minnesota

CITY           SKY/WX    TMP DP  RH WIND       PRES   REMARKS
ST CLOUD       CLOUDY    15   7  70 W21G29    30.08R WCI  -2
PAYNESVILLE    FLURRIES  13   8  81 W18G29    30.13R WCI  -4
AITKIN         LGT SNOW  18  10  73 W8G16     29.96R WCI   7
PINE RIVER     LGT SNOW  16  10  79 W6        30.01R WCI   7
BRAINERD       LGT SNOW  15  10  80 W14       30.00R WCI   0
STAPLES        LGT SNOW  12  10  92 W17       30.03R WCI  -5
LONG PRAIRIE   LGT SNOW  12   9  85 SW14G22   30.07S WCI  -3
LITTLE FALLS   LGT SNOW  16   9  73 W13G26    30.06R WCI   2
LITCHFIELD     CLOUDY    14   9  79 W18G26    30.14R WCI  -3
BUFFALO        CLOUDY    16   8  71 W18G24    30.13R WCI  -1
MAPLE LAKE     CLOUDY    16  10  77 W12G25    30.12R WCI   3
HUTCHINSON     CLOUDY    15   9  75 W23G30    30.15S WCI  -3
$$
MNZ037-044-045-052-053-080200-
   East Central Minnesota

CITY           SKY/WX    TMP DP  RH WIND       PRES   REMARKS
PRINCETON      CLOUDY    18   9  68 W14G24    30.06S WCI   4
MORA           FLURRIES  18  10  73 W13G20    30.04R WCI   4
CAMBRIDGE      FLURRIES  18   9  68 W13G20    30.04S WCI   4
RUSH CITY      CLOUDY    18   9  68 W17G26    30.04S WCI   2
MOOSE LAKE     LGT SNOW  18  12  79 W12       29.95R WCI   5
HINCKLEY       LGT SNOW  18  12  79 W14G25    30.00S WCI   4
CLOQUET        LGT SNOW  16  10  79 W14G20    29.90R WCI   1
MCGREGOR       CLOUDY    18  12  79 W9G16     29.96R WCI   6
$$
MNZ071>073-080-081-089-090-097-098-080200-
   Southwest Minnesota

CITY           SKY/WX    TMP DP  RH WIND       PRES   REMARKS
MONTEVIDEO     CLOUDY    14   5  67 NW18G28   30.23R WCI  -3
GRANITE FALLS  PTCLDY    13   7  76 W24       30.24R WCI  -6
CANBY          CLEAR     12   4  71 NW24G31   30.26R WCI  -8
MARSHALL       CLEAR     10   2  69 NW28G35   30.22  WCI -12
REDWOOD FALLS  PTCLDY    13   3  64 W24G32    30.21R WCI  -7
OLIVIA         MOCLDY    16   9  73 W23G30    30.18R WCI  -2
PIPESTONE      PTCLDY    10   3  72 NW26G33   30.23R WCI -11
WINDOM         CLEAR     12   3  67 W28G38    30.21R WCI  -9
WORTHINGTON    PTCLDY    12   6  77 W25G35    30.23R WCI  -8
JACKSON        CLOUDY    14   5  67 W24G31    30.22R WCI  -5
TRACY          CLEAR     12   5  73 NW18G24   30.23S WCI  -6
SLAYTON        MOCLDY    10   5  79 W23G36    30.22R WCI -10
$$
MNZ065>067-074>077-082>085-091>093-080200-
   South Central Minnesota

CITY           SKY/WX    TMP DP  RH WIND       PRES   REMARKS
MANKATO        FLURRIES  15   7  70 W20G30    30.18R WCI  -2
NEW ULM        CLOUDY    12   3  67 W31G38    30.19S WCI -10
ST JAMES       MOCLDY    14   7  73 W24G32    30.23R WCI  -5
FAIRMONT       FLURRIES  15   8  73 NW24G30   30.21R WCI  -4
GLENCOE        FLURRIES  17  12  82 W24G32    30.15R WCI  -2
FARIBAULT      FLURRIES  18  10  73 W20G26    30.14S WCI   1
OWATONNA       FLURRIES  18   9  68 W21G30    30.14S WCI   1
WASECA         CLOUDY    18  10  73 W24       30.18R WCI   0
ALBERT LEA     FLURRIES  21  12  68 W17G28    30.15S WCI   7
$$
MNZ078>079-086>088-094>096-080200-
   Southeast Minnesota

CITY           SKY/WX    TMP DP  RH WIND       PRES   REMARKS
ROCHESTER      FLURRIES  17  11  77 NW21      30.10S WCI   0
RED WING       CLOUDY    19   9  63 W18G29    30.09S WCI   4
STANTON        FLURRIES  19  11  71 W21G28    30.12R WCI   3
DODGE CENTER   FLURRIES  16  10  79 W21       30.11S WCI  -2
WINONA         CLOUDY    23  14  68 W15       30.12S WCI  10
AUSTIN         FLURRIES  18  10  73 W20G28    30.14R WCI   1
PRESTON        LGT SNOW  17  13  82 W14G20    30.11S WCI   3
$$
ABBREVIATIONS USED IN REMARKS
   TC - TEMPERATURES IN CELSIUS
  WCI - WIND CHILL INDEX
   HX - HEAT INDEX
  VSB - VISIBILITY
$$




USA.gov is the U.S. government's official web portal to all federal, state and local government web resources and services.